Location: Gad�tanya
(48.0500°N, 20.8500°E)
Time: 11:30:21
(UTC+00:00)

Cosmos 371 Rocket - Pass Details

Date: 05 July 2020
Orbit: 685 x 698 km, 74.0° (Epoch: 14 August)

Event Time Altitude Azimuth Distance (km) Brightness Sun altitude
Rises 22:02:34 0° 338° (NNW) 3,085 8.2 -18.7°
Reaches altitude 10° 22:04:54 10° 340° (NNW) 2,162 7.0 -18.8°
Maximum altitude 22:09:47 74° 66° (ENE) 726 3.4 -18.9°
Enters shadow 22:11:46 35° 143° (SE) 1,105 3.9 -19.0°
